TimeEST,TemperatureF,Dew PointF,Humidity,Sea Level PressureIn,VisibilityMPH,Wind Direction,Wind SpeedMPH,Gust SpeedMPH,PrecipitationIn,Events,Conditions,WindDirDegrees,DateUTC
12:53 AM,28.9,28.0,96,29.87,6.0,South,5.8,-,N/A,,Overcast,190,2013-01-17 05:53:00
1:10 AM,28.4,28.4,100,29.84,8.0,SSW,5.8,-,N/A,,Overcast,210,2013-01-17 06:10:00
1:41 AM,28.4,28.4,100,29.86,4.0,SSW,9.2,-,N/A,,Overcast,200,2013-01-17 06:41:00
1:53 AM,28.9,28.0,96,29.88,4.0,SSW,8.1,17.3,N/A,,Overcast,200,2013-01-17 06:53:00
2:53 AM,28.9,28.0,96,29.88,6.0,SSW,6.9,-,N/A,,Overcast,200,2013-01-17 07:53:00
3:12 AM,28.4,28.4,100,29.85,8.0,South,5.8,-,N/A,,Overcast,190,2013-01-17 08:12:00
3:53 AM,28.9,27.0,92,29.88,9.0,South,6.9,-,N/A,,Overcast,190,2013-01-17 08:53:00
4:53 AM,28.9,27.0,92,29.89,10.0,South,5.8,-,N/A,,Overcast,170,2013-01-17 09:53:00
5:53 AM,28.9,27.0,92,29.89,9.0,South,8.1,-,N/A,,Overcast,180,2013-01-17 10:53:00
6:53 AM,30.0,26.1,85,29.91,10.0,South,8.1,-,N/A,,Overcast,190,2013-01-17 11:53:00
7:53 AM,30.0,26.1,85,29.94,9.0,SSW,6.9,-,N/A,,Overcast,200,2013-01-17 12:53:00
8:53 AM,30.0,27.0,88,29.96,4.0,South,6.9,-,0.00,Snow,Light Snow,170,2013-01-17 13:53:00
9:53 AM,32.0,28.9,88,29.98,3.0,South,4.6,-,0.00,Snow,Light Snow,180,2013-01-17 14:53:00
10:53 AM,34.0,28.9,82,29.99,8.0,SSW,5.8,-,0.00,,Partly Cloudy,200,2013-01-17 15:53:00
11:14 AM,32.0,26.6,80,29.99,1.8,NNW,15.0,27.6,0.00,Snow,Light Snow,340,2013-01-17 16:14:00
11:19 AM,32.0,26.6,80,30.00,2.5,NNW,13.8,-,0.00,Snow,Light Snow,340,2013-01-17 16:19:00
11:26 AM,32.0,26.6,80,30.00,6.0,North,12.7,-,0.00,Snow,Light Snow,360,2013-01-17 16:26:00
11:53 AM,32.0,23.0,69,30.03,9.0,NW,8.1,-,0.00,,Mostly Cloudy,310,2013-01-17 16:53:00
12:53 PM,28.9,16.0,58,30.06,10.0,NNE,6.9,-,N/A,,Scattered Clouds,30,2013-01-17 17:53:00
1:53 PM,28.9,14.0,54,30.07,10.0,NNE,8.1,-,N/A,,Overcast,30,2013-01-17 18:53:00
2:53 PM,28.9,9.0,43,30.09,10.0,WNW,15.0,24.2,N/A,,Mostly Cloudy,300,2013-01-17 19:53:00
3:53 PM,27.0,7.0,43,30.12,10.0,WNW,15.0,23.0,N/A,,Overcast,290,2013-01-17 20:53:00
4:53 PM,25.0,5.0,43,30.13,10.0,WNW,10.4,-,N/A,,Overcast,290,2013-01-17 21:53:00
5:53 PM,24.1,3.0,40,30.14,10.0,West,9.2,-,N/A,,Clear,280,2013-01-17 22:53:00
6:53 PM,24.1,1.9,38,30.17,10.0,West,6.9,-,N/A,,Partly Cloudy,270,2013-01-17 23:53:00
7:53 PM,21.9,3.0,44,30.18,10.0,ENE,6.9,-,N/A,,Mostly Cloudy,60,2013-01-18 00:53:00
8:53 PM,15.1,3.0,59,30.18,10.0,NE,6.9,-,N/A,,Scattered Clouds,50,2013-01-18 01:53:00
9:53 PM,14.0,3.0,62,30.16,10.0,ENE,8.1,-,N/A,,Mostly Cloudy,70,2013-01-18 02:53:00
10:53 PM,12.9,3.0,65,30.15,10.0,ENE,10.4,-,N/A,,Overcast,70,2013-01-18 03:53:00
11:53 PM,12.9,1.9,62,30.15,10.0,ENE,10.4,-,N/A,,Overcast,70,2013-01-18 04:53:00